Weather History for Clinton, OK

Change the Weather History Date:

Tuesday, June 11, 2013

  Actual Average (KCSM) Record (KCSM)
Temperature  
Mean Temperature 80 °F -  
Max Temperature 96 °F 85 °F 102 °F (2006)
Min Temperature 64 °F 62 °F 59 °F (2005)
Cooling Degree Days 15    
Growing Degree Days 30 (Base 50)    
Moisture  
Dew Point 52 °F    
Average Humidity 37    
Maximum Humidity 64    
Minimum Humidity 17    
Precipitation  
Precipitation 0.00 in - - ()
Sea Level Pressure  
Sea Level Pressure 29.92 in    
Wind  
Wind Speed 12 mph (South)    
Max Wind Speed 22 mph    
Max Gust Speed 30 mph    
Visibility 10 miles    
Events      
Averages and records for this station are not official NWS values.
T = Trace of Precipitation, MM = Missing Value Source: NWS Daily Summary

Daily Weather History Graph

Daily Weather History Graph

Search for Another Location

Airport:

Trip Planner

Search our weather history database for the weather conditions in past years. The results will help you decide how hot, cold, wet, or windy it might be!

Date:

Astronomy

Jun. 11, 2013 Rise Set
Actual Time 6:19 AM CDT 8:51 PM CDT
Civil Twilight 5:49 AM CDT 9:21 PM CDT
Nautical Twilight 5:12 AM CDT 9:58 PM CDT
Astronomical Twilight 4:31 AM CDT 10:39 PM CDT
Moon 9:00 AM CDT (6/11) 11:00 PM CDT (6/11)
Length of Visible Light 15h 31m
Length of Day
14h 31m
Waxing Crescent, 8% of the Moon is Illuminated
Jun 11
Waxing Crescent
Jun 16
First Quarter
Jun 23
Full
Jun 29
Last Quarter
Jul 8
New

Hourly Weather History & Observations

Time (CDT) Temp. Heat Index Dew Point Humidity Pressure Visibility Wind Dir Wind Speed Gust Speed Precip Events Conditions
12:15 AM 73.4 °F - 53.6 °F 50% 29.93 in 10.0 mi SSE 10.4 mph - N/A   Clear
12:35 AM 73.4 °F - 53.6 °F 50% 29.93 in 10.0 mi South 10.4 mph - N/A   Clear
12:55 AM 71.6 °F - 55.4 °F 57% 29.93 in 10.0 mi South 10.4 mph - N/A   Clear
1:15 AM 71.6 °F - 55.4 °F 57% 29.93 in 10.0 mi South 11.5 mph - N/A   Clear
1:35 AM 71.6 °F - 55.4 °F 57% 29.93 in 10.0 mi South 9.2 mph - N/A   Clear
1:55 AM 71.6 °F - 53.6 °F 53% 29.93 in 10.0 mi South 10.4 mph - N/A   Clear
2:15 AM 73.4 °F - 51.8 °F 47% 29.93 in 10.0 mi South 8.1 mph - N/A   Clear
2:35 AM 73.4 °F - 51.8 °F 47% 29.93 in 10.0 mi South 8.1 mph - N/A   Clear
2:55 AM 73.4 °F - 51.8 °F 47% 29.93 in 10.0 mi South 9.2 mph - N/A   Clear
3:15 AM 73.4 °F - 50.0 °F 44% 29.93 in 10.0 mi South 6.9 mph - N/A   Clear
3:55 AM 69.8 °F - 51.8 °F 53% 29.93 in 10.0 mi South 6.9 mph - N/A   Clear
4:15 AM 69.8 °F - 50.0 °F 49% 29.93 in 10.0 mi South 6.9 mph - N/A   Clear
4:35 AM 69.8 °F - 50.0 °F 49% 29.93 in 10.0 mi South 5.8 mph - N/A   Clear
4:55 AM 69.8 °F - 50.0 °F 49% 29.94 in 10.0 mi South 4.6 mph - N/A   Clear
5:15 AM 68.0 °F - 51.8 °F 56% 29.93 in 10.0 mi South 5.8 mph - N/A   Clear
5:35 AM 66.2 °F - 51.8 °F 60% 29.94 in 10.0 mi South 5.8 mph - N/A   Clear
5:55 AM 66.2 °F - 51.8 °F 60% 29.94 in 10.0 mi SSE 5.8 mph - N/A   Clear
6:15 AM 64.4 °F - 51.8 °F 64% 29.96 in 10.0 mi SSW 4.6 mph - N/A   Clear
6:35 AM 64.4 °F - 51.8 °F 64% 29.96 in 10.0 mi SSW 3.5 mph - N/A   Clear
6:55 AM 66.2 °F - 51.8 °F 60% 29.97 in 10.0 mi South 3.5 mph - N/A   Clear
7:15 AM 68.0 °F - 51.8 °F 56% 29.97 in 10.0 mi SSE 4.6 mph - N/A   Clear
7:35 AM 68.0 °F - 51.8 °F 56% 29.97 in 10.0 mi SE 3.5 mph - N/A   Clear
7:55 AM 69.8 °F - 53.6 °F 56% 29.97 in 10.0 mi South 5.8 mph - N/A   Clear
8:15 AM 71.6 °F - 53.6 °F 53% 29.97 in 10.0 mi South 8.1 mph - N/A   Clear
8:35 AM 75.2 °F - 53.6 °F 47% 29.98 in 10.0 mi South 8.1 mph - N/A   Clear
8:55 AM 78.8 °F - 53.6 °F 42% 29.98 in 10.0 mi South 10.4 mph - N/A   Clear
9:15 AM 82.4 °F 81.4 °F 53.6 °F 37% 29.98 in 10.0 mi South 12.7 mph - N/A   Clear
9:35 AM 84.2 °F 82.8 °F 53.6 °F 35% 29.97 in 10.0 mi SSW 13.8 mph 21.9 mph N/A   Clear
9:55 AM 87.8 °F 85.7 °F 53.6 °F 31% 29.97 in 10.0 mi SSW 18.4 mph 21.9 mph N/A   Clear
10:15 AM 87.8 °F 85.7 °F 53.6 °F 31% 29.97 in 10.0 mi SSW 17.3 mph 25.3 mph N/A   Clear
10:55 AM 89.6 °F 87.3 °F 53.6 °F 29% 29.96 in 10.0 mi SW 17.3 mph 24.2 mph N/A   Clear
11:15 AM 89.6 °F 87.3 °F 53.6 °F 29% 29.96 in 10.0 mi SW 18.4 mph 25.3 mph N/A   Clear
11:35 AM 89.6 °F 87.3 °F 53.6 °F 29% 29.97 in 10.0 mi SSW 20.7 mph 27.6 mph N/A   Clear
11:55 AM 91.4 °F 89.1 °F 53.6 °F 28% 29.96 in 10.0 mi SSW 16.1 mph 24.2 mph N/A   Clear
12:15 PM 91.4 °F 89.1 °F 53.6 °F 28% 29.96 in 10.0 mi SW 18.4 mph 25.3 mph N/A   Clear
12:35 PM 91.4 °F - 51.8 °F 26% 29.96 in 10.0 mi South 16.1 mph 24.2 mph N/A   Clear
12:55 PM 91.4 °F - 50.0 °F 24% 29.96 in 10.0 mi SSW 20.7 mph 25.3 mph N/A   Clear
1:15 PM 93.2 °F - 51.8 °F 24% 29.95 in 10.0 mi SSW 16.1 mph 21.9 mph N/A   Clear
1:35 PM 93.2 °F - 50.0 °F 23% 29.95 in 10.0 mi South 15.0 mph 26.5 mph N/A   Clear
1:55 PM 95.0 °F - 50.0 °F 22% 29.94 in 10.0 mi South 17.3 mph 27.6 mph N/A   Clear
2:15 PM 95.0 °F - 50.0 °F 22% 29.93 in 10.0 mi South 19.6 mph 25.3 mph N/A   Clear
2:35 PM 95.0 °F - 50.0 °F 22% 29.92 in 10.0 mi South 19.6 mph 25.3 mph N/A   Clear
2:55 PM 95.0 °F - 50.0 °F 22% 29.92 in 10.0 mi SSW 17.3 mph 26.5 mph N/A   Clear
3:15 PM 96.8 °F - 50.0 °F 20% 29.91 in 10.0 mi South 21.9 mph 27.6 mph N/A   Clear
3:35 PM 95.0 °F - 50.0 °F 22% 29.91 in 10.0 mi South 20.7 mph 27.6 mph N/A   Clear
3:55 PM 96.8 °F - 46.4 °F 18% 29.90 in 10.0 mi SSW 18.4 mph 28.8 mph N/A   Clear
4:15 PM 96.8 °F - 50.0 °F 20% 29.90 in 10.0 mi South 19.6 mph 27.6 mph N/A   Clear
4:35 PM 96.8 °F - 48.2 °F 19% 29.89 in 10.0 mi SSW 20.7 mph 25.3 mph N/A   Clear
4:55 PM 96.8 °F - 46.4 °F 18% 29.89 in 10.0 mi South 17.3 mph 28.8 mph N/A   Clear
5:15 PM 96.8 °F - 46.4 °F 18% 29.88 in 10.0 mi South 20.7 mph 25.3 mph N/A   Clear
5:35 PM 96.8 °F - 44.6 °F 17% 29.88 in 10.0 mi South 19.6 mph 29.9 mph N/A   Clear
5:55 PM 96.8 °F - 46.4 °F 18% 29.86 in 10.0 mi South 18.4 mph 23.0 mph N/A   Clear
6:15 PM 95.0 °F - 46.4 °F 19% 29.86 in 10.0 mi South 20.7 mph 28.8 mph N/A   Clear
6:35 PM 95.0 °F - 44.6 °F 18% 29.86 in 10.0 mi South 17.3 mph 26.5 mph N/A   Clear
6:55 PM 95.0 °F - 44.6 °F 18% 29.85 in 10.0 mi South 20.7 mph 27.6 mph N/A   Clear
7:15 PM 93.2 °F - 46.4 °F 20% 29.85 in 10.0 mi South 17.3 mph 24.2 mph N/A   Clear
7:35 PM 93.2 °F - 44.6 °F 19% 29.86 in 10.0 mi South 18.4 mph 23.0 mph N/A   Clear
7:55 PM 91.4 °F - 50.0 °F 24% 29.86 in 10.0 mi South 15.0 mph 24.2 mph N/A   Clear
8:15 PM 89.6 °F - 50.0 °F 26% 29.86 in 10.0 mi South 17.3 mph 25.3 mph N/A   Clear
8:35 PM 87.8 °F - 51.8 °F 29% 29.86 in 10.0 mi South 13.8 mph - N/A   Clear
8:55 PM 86.0 °F 84.2 °F 53.6 °F 33% 29.86 in 10.0 mi South 15.0 mph 21.9 mph N/A   Clear
9:15 PM 86.0 °F 84.2 °F 53.6 °F 33% 29.87 in 10.0 mi South 13.8 mph - N/A   Clear
9:35 PM 84.2 °F 83.0 °F 55.4 °F 37% 29.88 in 10.0 mi South 16.1 mph - N/A   Clear
9:55 PM 84.2 °F 83.0 °F 55.4 °F 37% 29.88 in 10.0 mi South 13.8 mph - N/A   Clear
10:15 PM 82.4 °F 81.7 °F 55.4 °F 39% 29.89 in 10.0 mi South 11.5 mph 17.3 mph N/A   Clear
10:35 PM 80.6 °F 80.5 °F 55.4 °F 42% 29.90 in 10.0 mi South 13.8 mph - N/A   Clear
10:55 PM 80.6 °F 80.8 °F 57.2 °F 45% 29.91 in 10.0 mi South 12.7 mph - N/A   Clear
11:15 PM 78.8 °F - 57.2 °F 47% 29.91 in 10.0 mi South 11.5 mph - N/A   Clear
11:35 PM 78.8 °F - 59.0 °F 51% 29.90 in 10.0 mi SSE 12.7 mph - N/A   Clear
11:55 PM 78.8 °F - 59.0 °F 51% 29.89 in 10.0 mi SSE 15.0 mph - N/A   Clear